Regional Weather Roundup
Issued by NWS

Home | Current Version | Previous Version | Text Only | Print | Product List | Glossary On
Versions: 1 2 3 4 5 6 7 8 9 10 11 12 13 14 15 16 17 18 19 20 21 22 23 24 25 26 27
000
ASUS42 KTBW 302116
RWRFL
FLORIDA REGIONAL WEATHER ROUNDUP
NATIONAL WEATHER SERVICE TAMPA BAY RUSKIN FL
500 PM EDT SAT APR 30 2016

NOTE: "FAIR" INDICATES FEW OR NO CLOUDS BELOW 12,000 FEET WITH NO
SIGNIFICANT WEATHER AND/OR OBSTRUCTIONS TO VISIBILITY.

FLZ001>010-012>015-112-114-115-302200-
PANHANDLE FLORIDA

CITY           SKY/WX    TMP DP  RH WIND       PRES   REMARKS
PENSACOLA      CLOUDY    79  72  79 SE14      29.88F
PENSACOLA NAS  PTSUNNY   78  72  81 SE13      29.87F
MILTON NAS     LGT RAIN  80  71  74 SE15      29.89
CRESTVIEW      MOSUNNY   83  66  56 S9G16     29.92F
DUKE FIELD     FAIR      82  66  58 S15       29.89F
VALPARAISO     PTSUNNY   81  67  61 SE13      29.90F
MARY ESTHER    PTSUNNY   79  67  67 SE12      29.88F
PANAMA CITY    FAIR      82  62  50 S15       29.90F
TYNDALL AFB    PTSUNNY   83  67  58 S13       29.91F
APALACHICOLA   CLOUDY    81  73  76 S10       29.92F

STATION/POSITION SKY/WX   TEMP    WIND        PRES    WAVE   SWELL
                          AIR SEA DIR/SP/G            HT/PER HT/PER
                          (F)     (DEG/KT/KT) (MB)    (FT/S) (FT/S)
30.1N   87.6W              76 75  120/ 10/ 14 1010.3F   4/ 7   3/ 7
29.2N   88.2W              76 74  140/ 12/ 16 1010.5F
28.8N   86.0W              79 78  150/ 16/ 17 1011.9F   5/ 6
PANAMA CITY BEAC           78 78  140/ 14/ 16 1013.4F
TOWER C                    75     150/ 10/ 11 1013.6F
28.5N   84.5W              77 76  150/ 10/ 12 1013.0F   3/ 5   2/ 5

$$
FLZ011-016>038-118-127-128-134-139-239-302200-
NORTH FLORIDA

CITY           SKY/WX    TMP DP  RH WIND       PRES   REMARKS
MARIANNA       CLOUDY    87  66  49 S10       29.90S
TALLAHASSEE    CLOUDY    88  67  49 S14       29.91S
LIVE OAK       CLOUDY    91  70  49 S6        29.92F HX  97
CROSS CITY       N/A     86  67  52 SW10      29.91F
LAKE CITY      LGT RAIN  81  70  69 NW7       29.92S
GAINESVILLE    MOSUNNY   89  62  40 S12       29.91F
WILLISTON      FAIR      90  66  45 S7        29.92F
PALATKA        FAIR      84  84 100 SE16G22   29.94S HX 104
MAYPORT NAS    CLOUDY    78  71  79 SE15      29.95F
JACKSONVILLE   CLOUDY    83  64  52 SE15      29.93F
JAX NAS        CLOUDY    86  64  47 E20       29.94F
JAX CECIL      MOSUNNY   84  66  54 SE12      29.93F
FERNANDINA BEA FAIR      81  72  74 SE12      29.95F
ST AUGUSTINE   CLOUDY    80  70  71 SE16      29.96F
PALM COAST     SUNNY     81  70  69 SE12G23   29.96F

STATION/POSITION SKY/WX   TEMP    WIND        PRES    WAVE   SWELL
                          AIR SEA DIR/SP/G            HT/PER HT/PER
                          (F)     (DEG/KT/KT) (MB)    (FT/S) (FT/S)
SHELL POINT                80     150/  8/ 10 1012.5
KEATON BEACH               78     190/ 12/ 14 1013.3F
CEDAR KEY                  80     230/  6/  9 1013.6F
FERNANDINA                 81 71  110/ 11/ 16 1014.8F
30.7N   81.3W                 75                N/A     2/10
MAYPORT                    79 72  130/ 10/ 15 1015.0F
ST AUGUSTINE               75 74  130/ 13/ 14 1015.2F

$$
FLZ040-043>046-052-053-057-058-063-144-302200-
INTERIOR CENTRAL FLORIDA

CITY           SKY/WX    TMP DP  RH WIND       PRES   REMARKS
OCALA          MOSUNNY   90  61  37 S7        29.93F
THE VILLAGES     N/A     90  66  45 SE9       29.84S
LEESBURG       PTSUNNY   88  65  46 S9        29.94F
SANFORD        MOSUNNY   86  66  51 SE16      29.95F
ORLANDO EXEC   MOSUNNY   87  67  51 E16       29.95S
ORLANDO INTL   CLOUDY    87  66  49 E16       29.95S
KISSIMMEE      PTSUNNY   88  66  48 E13       29.95F
WINTER HAVEN   MOSUNNY   88  65  46 SE10      29.95F
LAKELAND       MOSUNNY   86  66  51 SE7       29.94F
BARTOW         MOSUNNY   84  64  51 E8        29.94F
OKEECHOBEE     MOSUNNY   82  63  51 SE9       29.96F

$$
FLZ041-047-054-059-064-141-147-302200-
EAST CENTRAL FLORIDA

CITY           SKY/WX    TMP DP  RH WIND       PRES   REMARKS
ORMOND BEACH   SUNNY     82  68  61 SE12G20   29.97F
DAYTONA BEACH  CLOUDY    82  69  64 E12G18    29.97F
DELAND           N/A     84  66  54 E12G18    29.97S
NEW SMYRNA BEA MOSUNNY   79  68  69 SE14G21   29.98F
JFK SPACE CTR  CLOUDY    82  68  63 SE9       29.96F
TITUSVILLE     MOSUNNY   82  66  57 SE14      29.98F
CAPE CANAVERAL CLOUDY    81  69  66 SE12      29.96F
PATRICK AFB    CLOUDY    81  69  67 SE13      29.96F
MELBOURNE      PTSUNNY   80  67  64 SE14      29.96F
VERO BEACH     CLOUDY    80  66  62 E12       29.97F
FT PIERCE      CLOUDY    79  65  62 E12       29.97S

STATION/POSITION SKY/WX   TEMP    WIND        PRES    WAVE   SWELL
                          AIR SEA DIR/SP/G            HT/PER HT/PER
                          (F)     (DEG/KT/KT) (MB)    (FT/S) (FT/S)
28.5N   80.2W              78 78  140/ 10/ 12 1015.7S
28.9N   78.5W              77 78  150/  6/  6 1015.4F
TRIDENT PIER               80 80  150/  8/ 11 1015.5F
28.4N   80.5W                 78                N/A     2/ 4
27.5N   80.2W                 78                N/A     2/ 3

$$
FLZ050-056-061-142-242-148-248-149-249-151-251-155-255-
160-260-302200-
WEST CENTRAL FLORIDA

CITY           SKY/WX    TMP DP  RH WIND       PRES   REMARKS
CRYSTAL RIVER  PTSUNNY  N/A N/A N/A W7        29.93S
INVERNESS      FAIR      88  68  51 SE6       29.94S
BROOKSVILLE    MOSUNNY   86  65  49 SE5       29.94S
ZEPHYRHILLS    FAIR      88  60  38 SE9       29.94S
CLEARWATER AIR FAIR      86  64  48 E5        29.92F
ST PETE CLEARW MOSUNNY   88  65  46 SE10      29.92F
TAMPA INTL     CLOUDY    88  64  44 SE9       29.93S
TAMPA EXEC     MOSUNNY   90  64  43 E8        29.94R
PLANT CITY     CLOUDY    88  68  51 SE9       29.96R
MACDILL AFB    MOSUNNY   87  71  58 S8        29.93R
PETER O KNIGHT CLOUDY    90  68  48 S7        29.93S
ST PETERSBURG  MOSUNNY   84  69  60 VRB5      29.91S
SARASOTA       MOSUNNY   82  68  62 SW10      29.91F
VENICE         NOT AVBL

STATION/POSITION SKY/WX   TEMP    WIND        PRES    WAVE   SWELL
                          AIR SEA DIR/SP/G            HT/PER HT/PER
                          (F)     (DEG/KT/KT) (MB)    (FT/S) (FT/S)
27.3N   84.2W                 80                N/A     4/ 5
CLEARWATER BEACH           78 80  240/ 10/ 11 1013.7F
MIDDLE TAMPA BAY NOT AVBL
VENICE                     79 82  220/ 12/ 13 1012.9F

$$
FLZ066-069-070-075>078-162-262-165-265-302200-
SOUTHWEST FLORIDA AND KEYS

CITY           SKY/WX    TMP DP  RH WIND       PRES   REMARKS
PUNTA GORDA    CLOUDY    88  67  49 SE14G21   29.93F
FT MYERS       MOSUNNY   88  62  41 SE13      29.90F
SOUTHWEST INTL MOSUNNY   88  61  40 SE13      29.91F
NAPLES         MOSUNNY   90  62  39 E16       29.90F
MARCO ISLAND   CLOUDY    90  63  40 E10G17    29.90F
MARATHON       MOSUNNY   82  65  56 E10       29.92F
KEY WEST NAS   MOSUNNY   83  64  52 E17       29.91F
KEY WEST INTL  MOSUNNY   82  67  60 E14       29.91F

STATION/POSITION SKY/WX   TEMP    WIND        PRES    WAVE   SWELL
                          AIR SEA DIR/SP/G            HT/PER HT/PER
                          (F)     (DEG/KT/KT) (MB)    (FT/S) (FT/S)
NAPLES                        82              1013.2F
26.0N   85.6W              80 80  120/ 16/ 19 1011.4F   5/ 6
DRY TORTUGAS               78     100/ 15/ 16 1012.4F
SAND KEY                   78     110/ 16/ 19 1013.2F
LONG KEY                   78 82   90/ 11/ 14 1013.8F
MOLASSES REEF              78 81  100/ 12/ 13 1014.0F

$$
FLZ067-068-071>074-168-172>174-302200-
SOUTHEAST FLORIDA

CITY           SKY/WX    TMP DP  RH WIND       PRES   REMARKS
W PALM BEACH   CLOUDY    81  64  56 E10       29.97F
BOCA RATON     MOSUNNY   81  64  57 SE9       29.96F
FT LAUDER-EXEC MOSUNNY   81  61  50 E13       29.95F
FT LAUDERDALE  CLOUDY    80  64  58 E13       29.94F
POMPANO BEACH  CLOUDY    77  65  66 E10       29.95F
PEMBROKE PINES MOSUNNY   81  65  58 E12       29.96F
OPA LOCKA      CLOUDY    84  66  54 SE10      29.95F
MIAMI          CLOUDY    83  65  54 E13G20    29.95F
WEST KENDALL     N/A     83  66  56 E14       29.95S
HOMESTEAD      CLOUDY    82  66  59 E10       29.94F

STATION/POSITION SKY/WX   TEMP    WIND        PRES    WAVE   SWELL
                          AIR SEA DIR/SP/G            HT/PER HT/PER
                          (F)     (DEG/KT/KT) (MB)    (FT/S) (FT/S)
PORT EVERGLADES            79      80/  6/  9 1014.3F
VIRGINIA KEY               78 82   80/  9/ 12 1014.6F
LAKE WORTH                 77 80  120/  8/ 10 1014.7F
SETTLEMENT POINT           79      70/ 10/ 11 1015.1F

$$





USA.gov is the U.S. government's official web portal to all federal, state and local government web resources and services.